Regional Weather Roundup
Issued by NWS Albany, NY

Home | Current Version | Previous Version | Graphics & Text | Print | Product List | Glossary Off
Versions: 1 2 3 4 5 6 7 8 9 10 11 12 13 14 15 16 17 18 19 20 21 22 23 24 25 26 27 28 29 30 31 32 33 34 35 36 37 38 39 40 41 42 43 44 45 46 47 48 49 50

117
ASUS41 KALY 301910
RWRALY

NEW YORK STATE HOURLY WEATHER ROUNDUP
NATIONAL WEATHER SERVICE ALBANY NY
300 PM EDT THU MAR 30 2017

NOTE: "FAIR" INDICATES FEW OR NO CLOUDS BELOW 12,000 FEET WITH NO
SIGNIFICANT WEATHER AND/OR NO OBSTRUCTIONS TO VISIBILITY.

NYZ032-033-038>043-046>054-057>066-NYZ062>081-082-084-302000-
EAST


CITY           SKY/WX    TMP DP  RH WIND       PRES   REMARKS
ALBANY         CLOUDY    47  20  34 N9G16     30.20F
GLENS FALLS    MOSUNNY   44  20  38 E9        30.19F
POUGHKEEPSIE   SUNNY     49  20  31 VRB7      30.17S
NEWBURGH       PTSUNNY   48  23  37 CALM      30.18F
MONTGOMERY     SUNNY     49  23  36 CALM      30.16F
WHITE PLAINS   CLOUDY    49  21  33 NW9       30.16F
ISLIP          PTSUNNY   47  25  42 S12G17    30.18F
NEW YORK CITY  CLOUDY    51  24  34 CALM      30.18F
CENTRAL PARK   CLOUDY    50  22  33 SW5       30.21F
$$

NYZ005>009-017-018-044>046-055-056-302000-
CENTRAL


CITY           SKY/WX    TMP DP  RH WIND       PRES   REMARKS
FULTON         CLOUDY    44  22  41 SE6       30.17F
SYRACUSE       CLOUDY    43  20  39 E6        30.17F
ROME           CLOUDY    44  22  41 S6        30.20S
ELMIRA         CLOUDY    44  21  40 VRB6      30.12F
BINGHAMTON     CLOUDY    41  20  43 CALM      30.12F
MONTICELLO     SUNNY     45  21  39 SW6       30.16S
$$

NYZ026>034-041>043-087-302000-
NORTH


CITY           SKY/WX    TMP DP  RH WIND       PRES   REMARKS
WATERTOWN      CLOUDY    43  24  47 NE5       30.19F
FORT DRUM      NOT AVBL
MASSENA        MOSUNNY   39  18  42 NE10      30.25F WCI  32
SARANAC LAKE   SUNNY     39  17  41 VRB5      30.12F
PLATTSBURGH    SUNNY     39  17  41 NE10      30.23F WCI  32
$$

NYZ001>004-010>016-019>021-085-302000-
WEST


CITY           SKY/WX    TMP DP  RH WIND       PRES   REMARKS
NIAGARA FALLS  CLOUDY    43  25  49 E14       30.07F
BUFFALO        LGT RAIN  38  30  73 SE17G23   30.08F WCI  28
DUNKIRK        LGT RAIN  38  35  89 E8        30.06S WCI  32
JAMESTOWN      CLOUDY    36  32  87 E10       29.99R WCI  28
WELLSVILLE     SNOW      33  30  88 E14       30.05F VSB 1/2 WCI  23
ROCHESTER      CLOUDY    42  23  46 SE12      30.15F
PENN YAN       CLOUDY    41  23  48 VRB6      30.13F
$$

             KEY
       WCI = WIND CHILL INDEX
       VSB = VISIBILITY
       HX  = HEAT INDEX
$$




USA.gov is the U.S. government's official web portal to all federal, state and local government web resources and services.